This is the latest recevied weather packets stored in our database for station/object XE2RCS-1. If no packets are shown the sender has not sent any weather packets the latest 10 day(s).
| Time | Temp. | Humidity | Pressure | Rain* | Wind** | Luminosity | Snow |
|---|---|---|---|---|---|---|---|
| 1788494879 | 24.44° C | 48% | 1017 hPa | 0 mm | - | - | - |
| 1788494258 | 24.44° C | 48% | 1016 hPa | 0 mm | - | - | - |
| 1788493657 | 25° C | 48% | 1016 hPa | 0 mm | - | - | - |
| 1788493072 | 25° C | 63% | 1016 hPa | 0 mm | - | - | - |
| 1788492456 | 25° C | 61% | 1017 hPa | 0 mm | - | - | - |
| 1788491855 | 25.56° C | 56% | 1017 hPa | 0 mm | - | - | - |
| 1788491255 | 25.56° C | 38% | 1017 hPa | 0 mm | - | - | - |
| 1788490654 | 25.56° C | 39% | 1015 hPa | 0 mm | - | - | - |
| 1788490053 | 25.56° C | 39% | 1015 hPa | 0 mm | - | - | - |
| 1788489453 | 26.11° C | 56% | 1015 hPa | 0 mm | - | - | - |
| 1788488852 | 26.11° C | 55% | 1015 hPa | 0 mm | - | - | - |
| 1788488251 | 26.11° C | 54% | 1015 hPa | 0 mm | - | - | - |
| 1788487651 | 26.11° C | 50% | 1015 hPa | 0 mm | - | - | - |
| 1788487050 | 26.11° C | 42% | 1013 hPa | 0 mm | - | - | - |
| 1788486449 | 26.11° C | 42% | 1013 hPa | 0 mm | - | - | - |
| 1788485849 | 26.67° C | 52% | 1013 hPa | 0 mm | - | - | - |
| 1788485248 | 26.67° C | 52% | 1014 hPa | 0 mm | - | - | - |
| 1788484648 | 26.67° C | 49% | 1015 hPa | 0 mm | - | - | - |
| 1788484047 | 26.67° C | 39% | 1013 hPa | 0 mm | - | - | - |
| 1788483447 | 26.67° C | 39% | 1013 hPa | 0 mm | - | - | - |
| 1788482846 | 27.22° C | 38% | 1013 hPa | 0 mm | - | - | - |
| 1788482245 | 27.78° C | 36% | 1013 hPa | 0 mm | - | - | - |
| 1788481645 | 28.89° C | 36% | 1015 hPa | 0 mm | - | - | - |
| 1788481044 | 28.89° C | 37% | 1015 hPa | 0 mm | - | - | - |
| 1788480443 | 26.11° C | 36% | 1015 hPa | 0 mm | - | - | - |
* Rain latest hour (hover to see other rain measurements)
** Current wind speed in m/s (hover to see current wind gust speed)